Find Starlink 30854

NORAD ID: 58244 Int'l Des: 2023-171 Owner: SPXS Country: US Constellation: starlink operational
LEOCIRCULAR

实时位置

正在加载3D地球...

关于 Starlink 30854

正在加载描述...

即将过境

Passes for default location (London). Set your location on the main map for personalized predictions.

高度历史

Loading altitude history...

两行轨道根数

1 58244U 23171Q 26126.95132330 -.00001043 00000-0 -28406-4 0 9994
2 58244 43.0001 316.3024 0001693 273.8708 86.1950 15.27568019138641
Epoch: May 6, 2026 • Age: 13 hours

当前状态

高度 487.1 km
速度 7.63 km/s
星下点 41.85°N, 17.6°E
发射日期 Nov 8, 2023
运行时间 2.4 years
类型 internet

技术详情

分类 Payload
质量 730.00 kg
干质量 700.00 kg
总质量 730.00 kg
长度 0.30 m
直径 4.10 m
跨度 29.00 m
形状 Box + pan
制造商 SPXS
平台类型 Starlink V2M
阶段状态 In Orbit
所有者/国家 SPXS/US

Most Searched